Vertical_Velocity
-1 4 -9 -8 -5 14 9 3 2 -3 -5 -3 -6 -4 -3 -6 -12 -2 3 -2 8 2 3 -0 7 -1 -5 0 4 -3 -3 -1 -0 -2 -3 -1 1 -3 -5 5 3 12 8 -1
0 -13 -3 2 5 3 5 2 -6 -7 -4 13 -5 -20 -6 2 -11 1 -2 -1 24 1 7 5 -0 -1 -4 4 6 0 -1 -2 -2 -2 -2 0 -3 -4 -2 -1 -1 -6 17 -4
-3 9 4 2 1 4 -1 -3 -10 -4 -2 2 4 -23 -22 -1 -12 -11 -5 -1 -4 23 8 -1 -1 -1 -0 3 6 0 -1 -2 -2 -2 -1 0 -3 -2 -2 -4 -3 -2 1 0
4 1 -1 3 -4 10 0 3 3 3 17 -4 5 -35 -8 -10 -24 3 -15 -2 -9 7 20 8 -1 -0 -2 6 4 -1 -2 -2 -1 -1 1 -1 -1 -5 0 -1 -0 1 2 3
-8 2 -3 -3 -11 11 -24 5 4 12 5 14 3 1 -18 -3 -11 -19 -10 -5 0 11 21 4 -1 2 3 7 3 0 -1 -1 -0 -0 3 -1 0 -1 -0 -1 -2 3 0 2
-3 -0 4 1 5 8 15 -0 9 11 12 7 -1 -5 -37 -7 -10 -10 13 -3 -18 2 3 3 17 4 4 7 1 -1 1 -0 1 0 3 -2 -1 1 2 3 -1 1 -4 -6
10 -7 4 2 -3 16 10 9 1 2 4 -6 -3 6 -25 -23 2 -0 -12 -2 -13 10 12 4 -2 -3 0 1 1 3 0 1 0 3 0 -3 -2 -1 -0 -3 -5 -8 -3 5
-1 -10 1 1 -14 -22 -0 7 -6 -3 -2 -6 3 -4 -17 9 9 15 12 6 -11 19 -1 6 -3 2 4 6 2 2 -1 1 -1 4 1 -2 -3 -4 -5 -3 -5 -1 3 22
1 -9 -1 3 4 16 -22 3 -2 5 4 5 -5 -1 -13 3 -12 -9 6 -14 -11 -5 -12 -6 3 8 6 0 2 3 -1 1 2 -1 0 -3 -2 -3 -2 -1 -3 -1 2 1
-4 -1 0 4 8 10 2 3 4 9 1 -0 -5 -3 -15 -2 -32 9 -15 28 7 -2 6 -3 8 4 4 2 8 1 -4 -1 2 -5 2 -1 -3 -0 -2 -3 0 4 0 -0
7 13 -15 5 6 5 2 3 11 1 8 -3 -0 -4 6 3 -1 -20 0 14 5 -10 25 16 10 2 5 7 2 2 -5 -2 3 -0 -0 -1 -0 -2 -1 -2 -1 3 -0 -0
1 1 -4 -10 10 12 3 9 25 5 -9 -5 3 -13 3 -37 -22 -28 15 8 23 -5 4 38 12 2 1 5 4 4 -3 1 1 3 -3 -0 -1 -1 -2 -3 -2 -3 1 0
13 -0 1 2 -12 6 5 6 2 5 17 -11 5 -9 12 27 1 -11 9 -4 -1 14 5 -3 7 1 -4 3 5 2 3 3 0 -2 0 1 -0 -0 1 -1 -5 -2 -2 -3
27 2 -0 -2 0 -7 -1 2 -2 -1 -1 2 3 -5 -2 -3 -1 15 -24 -41 -3 12 2 13 11 8 3 7 10 1 3 0 2 -1 -2 0 1 2 2 0 1 -1 -2 -1
-3 -3 4 4 -1 -3 -0 -15 -18 2 -3 8 -9 -6 10 3 -19 16 -15 21 -57 -20 12 -21 15 7 2 6 7 4 -2 -2 2 3 -5 2 3 1 0 1 -0 -0 -2 -1
-8 -6 -5 -5 4 1 -5 6 10 -9 -1 -12 2 5 10 8 9 21 -0 -12 -14 19 10 1 -5 4 16 16 13 17 9 12 9 1 8 -2 4 -1 1 1 -0 0 -0 -1
4 3 -2 -2 -2 -5 -5 4 2 9 4 7 8 3 6 10 2 -4 4 -3 3 -28 -3 -5 4 0 -9 -3 7 6 12 10 7 6 4 6 -0 4 4 5 3 -0 2 3
-0 -3 -2 -3 -3 -4 6 2 0 4 7 2 3 6 4 -1 -5 -6 -5 8 10 5 5 8 7 5 4 3 0 -2 -21 -9 -2 1 5 11 3 8 3 -0 2 2 2 1
5 12 -2 -2 -2 -8 4 2 7 -2 2 7 1 8 4 2 5 -1 0 -6 -1 3 9 8 7 3 4 2 -2 1 5 1 8 -11 3 5 8 1 9 6 6 8 4 1
13 15 1 -4 -1 -0 1 -2 -1 6 3 -4 -3 5 -2 -10 4 9 3 -0 -1 3 8 7 5 8 -9 -1 11 15 0 -7 -0 0 0 1 2 5 6 15 8 6 2 -2
9 8 -2 -1 -2 -3 -3 -1 -3 3 -6 -6 -1 3 1 -10 0 6 5 0 10 -3 2 2 -2 -2 -1 -5 -5 4 8 2 -4 -7 -2 -5 2 -15 5 7 5 10 7 9
-4 -5 -1 3 1 -8 -1 -3 -3 -3 -6 -11 -3 2 1 1 0 2 12 2 15 3 -3 0 -1 -3 -8 -11 -7 -0 1 -5 4 -1 1 4 -2 5 10 -23 -19 4 2 5
-1 4 -4 2 3 1 -1 -2 -3 -1 0 -0 -0 2 2 -1 -0 -6 -8 -1 12 -1 1 -0 -1 7 8 -14 1 -0 -8 -3 1 3 -2 2 3 3 7 8 4 2 -3 -9
13 -3 -0 2 4 -5 -1 1 0 -0 -1 2 -0 -2 1 0 1 3 3 1 -5 -4 3 7 5 -3 -10 -1 -3 -3 -5 -3 -2 0 0 -3 -0 1 5 8 11 -2 -6 6
4 4 3 2 19 4 1 -1 -2 2 0 2 2 3 1 -3 -1 -2 -1 -7 -8 6 7 3 -0 -11 -7 3 -5 -5 -7 -1 2 -4 -4 -3 -0 -2 -1 4 6 10 7 19
-2 2 -2 -2 7 5 1 1 -2 3 -0 1 -2 -1 2 2 1 1 -2 2 -1 -11 -1 6 -1 -3 -5 3 -2 -2 2 -2 -1 3 -6 -1 -3 -5 -0 -2 -3 15 23 15
Height
3041 3039 3033 3041 3048 3049 3051 3050 3048 3051 3057 3058 3055 3044 3048 3049 3051 3051 3052 3052 3052 3055 3056 3055 3057 3061 3064 3065 3067 3066 3065 3062 3059 3057 3053 3049 3047 3048 3050 3054 3059 3064 3066 3071
3033 3024 3032 3040 3043 3045 3045 3046 3042 3046 3050 3052 3051 3037 3039 3041 3044 3045 3045 3045 3047 3050 3049 3050 3051 3054 3058 3060 3062 3061 3060 3057 3055 3053 3048 3044 3043 3042 3045 3050 3054 3058 3060 3063
3024 3027 3030 3033 3037 3040 3040 3040 3041 3041 3044 3044 3043 3029 3031 3034 3036 3037 3037 3038 3038 3044 3043 3044 3045 3048 3051 3053 3056 3056 3055 3053 3050 3048 3044 3041 3041 3041 3042 3045 3048 3052 3056 3060
3019 3021 3025 3027 3029 3036 3034 3038 3037 3038 3040 3038 3039 3020 3025 3026 3024 3025 3029 3030 3033 3034 3037 3038 3038 3041 3045 3048 3050 3051 3050 3049 3047 3044 3041 3038 3038 3038 3040 3041 3044 3047 3049 3053
3015 3017 3018 3021 3026 3032 3028 3034 3033 3033 3033 3033 3031 3031 3009 3016 3013 3015 3018 3022 3024 3028 3030 3029 3032 3036 3040 3042 3045 3045 3045 3045 3043 3041 3039 3035 3034 3035 3037 3039 3040 3042 3045 3049
3011 3015 3015 3018 3022 3027 3029 3030 3029 3028 3028 3027 3025 3029 2998 3011 3010 3006 3008 3013 3014 3017 3021 3022 3025 3029 3033 3036 3039 3040 3040 3040 3040 3038 3036 3032 3031 3034 3036 3037 3038 3037 3039 3042
3009 3006 3009 3013 3015 3019 3023 3026 3025 3026 3024 3019 3020 3021 3004 3008 3008 3003 2995 3000 3005 3009 3012 3014 3015 3022 3026 3031 3034 3036 3036 3037 3036 3035 3033 3028 3028 3030 3033 3034 3034 3035 3038 3041
3003 3001 3001 3003 3004 3011 3015 3018 3016 3019 3020 3015 3016 3008 3005 3007 3002 3001 2996 2994 2997 3003 3002 3005 3011 3017 3022 3027 3030 3032 3032 3033 3034 3033 3031 3027 3026 3029 3031 3032 3035 3037 3039 3044
2999 2996 2997 2998 2999 3004 3007 3009 3013 3013 3012 3011 3007 3003 3002 2998 2999 2992 2991 2992 2992 2990 2994 2999 3006 3013 3018 3023 3026 3028 3029 3030 3031 3031 3030 3027 3024 3027 3029 3032 3035 3037 3041 3044
2997 2996 2995 2995 2994 2996 2998 3005 3009 3008 3009 3009 3002 3002 2998 2997 2995 2994 2993 2993 2988 2983 2993 2996 3003 3010 3015 3020 3022 3023 3025 3027 3028 3029 3028 3027 3024 3025 3028 3030 3033 3036 3039 3042
2993 2994 2994 2993 2992 2990 2995 2998 3002 3003 3003 3003 3003 2997 2993 2995 2993 2987 2989 2985 2988 2990 2989 2996 3001 3007 3011 3015 3017 3019 3021 3023 3025 3027 3026 3026 3025 3024 3025 3030 3031 3035 3037 3040
2987 2989 2989 2990 2989 2988 2991 2994 2996 2996 2999 2997 2997 2995 2992 2995 2992 2989 2986 2983 2984 2987 2991 2995 2999 3003 3006 3010 3013 3015 3017 3020 3022 3024 3025 3025 3024 3025 3026 3027 3030 3032 3034 3037
2982 2984 2985 2986 2989 2987 2989 2990 2992 2992 2992 2993 2997 2996 2997 2996 2994 2992 2983 2981 2982 2985 2989 2991 2994 2997 3002 3006 3010 3012 3014 3017 3019 3022 3023 3024 3023 3024 3026 3028 3028 3030 3032 3034
2982 2980 2983 2985 2986 2989 2987 2988 2989 2991 2991 2992 2992 2993 2994 2992 2991 2988 2980 2983 2981 2980 2981 2985 2989 2993 2997 3001 3006 3009 3010 3013 3015 3018 3020 3021 3022 3024 3024 3026 3028 3030 3030 3032
2977 2980 2981 2982 2984 2986 2986 2988 2989 2990 2989 2989 2989 2992 2989 2989 2989 2990 2987 2986 2980 2981 2983 2985 2987 2990 2994 2998 3002 3005 3006 3008 3010 3012 3015 3018 3019 3021 3022 3023 3025 3027 3029 3031
2980 2980 2980 2981 2982 2983 2983 2985 2988 2988 2987 2986 2987 2988 2987 2987 2988 2990 2988 2988 2986 2986 2983 2984 2986 2989 2992 2996 2998 3000 3002 3004 3007 3008 3010 3013 3015 3017 3019 3020 3022 3023 3024 3026
2983 2981 2979 2979 2980 2979 2980 2980 2979 2983 2983 2982 2983 2985 2983 2983 2983 2982 2984 2986 2985 2984 2984 2984 2984 2984 2988 2990 2993 2995 2998 2999 3002 3004 3006 3007 3010 3011 3014 3016 3017 3019 3021 3022
2979 2979 2979 2979 2978 2980 2978 2977 2976 2977 2978 2978 2980 2981 2980 2982 2981 2979 2979 2980 2982 2984 2985 2983 2983 2985 2986 2987 2990 2992 2994 2996 2997 2999 3000 3002 3004 3007 3008 3010 3012 3013 3015 3017
2975 2975 2976 2976 2979 2978 2976 2976 2977 2976 2977 2976 2977 2978 2977 2980 2979 2976 2975 2975 2977 2979 2981 2981 2980 2981 2984 2985 2986 2988 2989 2991 2994 2996 2995 2995 2997 2999 3000 3002 3004 3006 3007 3009
2969 2971 2973 2976 2980 2978 2976 2976 2976 2975 2975 2975 2975 2976 2974 2972 2972 2973 2970 2971 2972 2973 2976 2977 2979 2978 2979 2982 2983 2984 2985 2986 2986 2988 2989 2990 2991 2992 2991 2995 2996 2998 2999 3000
2965 2968 2970 2975 2977 2974 2973 2974 2974 2974 2978 2973 2973 2974 2972 2970 2970 2968 2967 2968 2967 2969 2971 2973 2974 2976 2978 2977 2977 2977 2978 2978 2978 2979 2979 2981 2984 2985 2985 2986 2988 2991 2991 2992
2964 2967 2969 2973 2975 2975 2972 2972 2974 2973 2972 2973 2972 2973 2972 2971 2969 2966 2961 2961 2961 2962 2966 2968 2969 2970 2971 2972 2971 2970 2970 2970 2969 2970 2970 2969 2971 2975 2977 2977 2979 2980 2981 2982
2963 2966 2966 2969 2970 2968 2969 2970 2970 2971 2971 2972 2972 2971 2971 2969 2967 2967 2961 2959 2956 2960 2963 2964 2964 2965 2965 2965 2964 2962 2961 2960 2958 2959 2961 2961 2961 2962 2966 2968 2969 2968 2970 2971
2960 2961 2964 2966 2965 2966 2968 2968 2969 2969 2969 2970 2970 2970 2969 2968 2966 2965 2963 2959 2958 2961 2961 2962 2961 2961 2961 2959 2957 2955 2954 2952 2950 2949 2951 2953 2954 2955 2957 2958 2960 2959 2961 2960
2961 2962 2962 2963 2961 2963 2965 2967 2968 2967 2968 2968 2968 2967 2965 2965 2963 2962 2961 2961 2959 2960 2961 2960 2960 2961 2959 2956 2954 2952 2949 2947 2945 2944 2944 2945 2946 2948 2949 2950 2952 2952 2951 2949
2960 2961 2963 2959 2960 2961 2963 2965 2966 2966 2966 2965 2965 2965 2963 2961 2960 2959 2959 2958 2958 2959 2959 2959 2959 2958 2957 2956 2955 2953 2950 2947 2943 2941 2940 2940 2940 2942 2943 2943 2943 2942 2939 2937